Home   Weather   Corner Brook   Past weeks
Flag for Canada

Past Weather in Corner Brook, Newfoundland and Labrador, Canada — Yesterday and Last 2 Weeks

Now
32 °F

Light snow. Overcast.


Feels Like: 25 °F
Forecast: 31 / 28 °F
Wind: 8 mph from Southwest

Location: Deer Lake

Current Time: Dec 5, 2019 at 9:36:29 pm

Latest Report: Dec 5, 2019 at 8:30 pm


Visibility: 15 mi

Pressure: 29.41 "Hg

Humidity: 93%

Dew Point: 30 °F

Location of Corner BrookLocation

Past Weather in Corner Brook — Graph

°F

Corner Brook Temperature Yesterday

Maximum temperature yesterday: 39 °F (at 3:30 pm)
Minimum temperature yesterday: 32 °F (at 12:30 am)
Average temperature yesterday: 33 °F

High & Low Weather Summary for the Past Weeks

 TemperatureHumidityPressure
High43 °F (Nov 23, 2:14 pm)100% (Nov 21, 12:30 am)29.99 "Hg (Nov 21, 12:30 am)
Low21 °F (Dec 3, 7:30 am)59% (Dec 2, 11:30 am)28.81 "Hg (Nov 30, 1:30 pm)
Average33 °F89%29.51 "Hg
* Reported Nov 20 8:30 pm — Dec 5 8:30 pm, Corner Brook. Weather by CustomWeather, © 2019

Note: Actual official high and low records may vary slightly from our data, if they occured in-between our weather recording intervals... More about our weather records

Corner Brook Weather History for the Previous 24 Hours

Scroll right to see more
 ConditionsComfort  
Time TempWeatherWind HumidityBarometerVisibility
8:30 pm
Thu, Dec 5
32 °FLight snow. Overcast.8 mph93%29.41 "Hg15 mi
7:30 pm32 °FLight snow. Mostly cloudy.3 mph93%29.41 "Hg10 mi
6:30 pm32 °FLight snow. Overcast.2 mph93%29.41 "Hg6 mi
5:54 pm32 °FLight snow. Mostly cloudy.2 mph100%29.41 "Hg8 mi
4:52 pm32 °FLight snow. Mostly cloudy.2 mph93%29.41 "Hg3 mi
4:30 pm30 °FLight snow. Partly cloudy.5 mph100%29.41 "Hg6 mi
3:47 pm30 °FLight snow. Broken clouds.No wind100%29.37 "Hg6 mi
3:30 pm30 °FLight snow. Mostly cloudy.3 mph100%29.36 "Hg2 mi
2:42 pm32 °FLight snow. Mostly cloudy.No wind93%29.39 "Hg1 mi
2:30 pm32 °FLight snow. Dense fog.No wind93%29.39 "Hg1 mi
1:30 pm32 °FLight snow. Dense fog.No wind93%29.39 "Hg1 mi
12:30 pm32 °FLight snow. Dense fog.2 mph93%29.40 "Hg1 mi
11:41 am32 °FLight snow. Dense fog.No wind93%29.41 "Hg1 mi
10:45 am32 °FLight snow. Overcast.3 mph93%29.41 "Hg2 mi
10:22 am32 °FLight snow. Overcast.5 mph93%29.42 "Hg10 mi
9:30 am32 °FOvercast.3 mph93%29.44 "Hg15 mi
8:30 am32 °FOvercast.5 mph93%29.45 "Hg15 mi
7:30 am30 °FOvercast.No wind100%29.49 "Hg15 mi
6:30 am32 °FOvercast.No wind93%29.50 "Hg15 mi
5:30 am32 °FLight snow. Mostly cloudy.5 mph93%29.49 "Hg15 mi
4:59 am32 °FLight snow. Mostly cloudy.No wind93%29.48 "Hg15 mi
4:30 am32 °FPassing clouds.3 mph93%29.49 "Hg15 mi
3:30 am34 °FOvercast.8 mph87%29.49 "Hg15 mi
2:30 am32 °FOvercast.7 mph87%29.49 "Hg15 mi
1:30 am34 °FOvercast.8 mph81%29.47 "Hg15 mi
12:30 am34 °FOvercast.8 mph81%29.45 "Hg15 mi
11:30 pm
Wed, Dec 4
34 °FOvercast.8 mph81%29.42 "Hg15 mi
11:19 pm34 °FOvercast.8 mph81%29.42 "Hg15 mi
10:30 pm34 °FLight snow. Overcast.14 mph87%29.39 "Hg15 mi
9:30 pm34 °FMostly cloudy.13 mph87%29.36 "Hg15 mi
Weather by CustomWeather, © 2019

See weather overview

Advertising